Location: Newark
(47.5833°N, 8.1500°E)
Time: 08:40:49
(UTC+00:00)

Vanguard 1 - Pass Details

Date: 29 October 2020
Orbit: 650 x 3833 km, 34.2° (Epoch: 29 November)

Event Time Altitude Azimuth Distance (km) Brightness Sun altitude
Rises 16:46:57 0° 275° (W) 7,954 16.4 -6.1°
Reaches altitude 10° 16:53:10 10° 269° (W) 6,777 15.9 -7.1°
Maximum altitude 17:11:25 39° 211° (SSW) 3,790 13.4 -10.2°
Drops below altitude 10° 17:23:14 10° 149° (SSE) 4,433 13.2 -12.1°
Sets 17:26:20 0° 141° (SE) 5,058 13.4 -12.7°
